Wind_Speed
38 42 46 50 53 64 77 86 96 105 114 116 121 123 119 118 122 122 118 114 110 106 101 101 102 97 95 96 93 88 87 80 76 72 72 71 70 73 70 67 64 61 59 59
32 32 36 44 51 56 63 77 89 101 113 114 124 126 122 119 121 124 119 114 111 107 103 101 101 98 96 96 93 94 89 90 87 78 78 77 76 76 73 70 67 61 63 61
26 23 25 32 40 48 55 69 81 97 109 116 121 126 124 119 120 123 120 114 111 109 105 104 102 101 98 97 94 93 91 89 87 84 77 79 81 79 78 76 69 65 66 67
24 17 17 25 36 46 54 64 77 92 106 117 117 120 119 119 115 119 117 113 109 108 106 104 103 101 101 99 96 93 92 90 88 88 85 79 77 76 78 76 73 68 67 68
24 16 10 19 27 42 51 65 78 86 100 113 114 125 122 121 116 113 113 110 109 109 108 104 101 101 102 99 95 93 91 96 95 91 88 86 85 83 78 80 79 70 71 76
23 14 6 13 25 40 55 63 72 83 97 108 113 114 122 118 108 106 110 108 108 108 107 104 103 102 100 98 93 99 97 96 95 92 92 89 86 85 82 81 80 74 73 80
24 15 5 11 24 40 51 63 74 80 93 102 109 115 119 114 113 108 107 108 106 107 105 103 102 99 96 93 93 98 97 100 97 95 92 90 88 85 85 86 85 82 84 87
24 17 6 10 24 36 48 57 66 76 90 103 108 112 114 114 111 109 106 107 104 103 104 103 100 102 98 96 95 94 95 96 97 98 98 95 93 91 90 89 86 86 90 89
23 16 6 9 21 32 47 65 69 80 95 101 107 109 109 112 109 104 101 101 103 100 100 99 101 99 101 99 98 96 97 96 98 98 96 96 98 97 95 94 93 90 90 93
21 16 6 9 19 30 46 59 66 80 91 102 105 106 112 112 111 105 100 97 96 98 96 95 96 97 97 98 100 100 100 100 98 97 97 97 97 96 96 97 97 97 96 96
18 13 7 10 20 32 47 55 64 77 93 103 105 110 108 109 108 105 100 98 96 93 92 89 90 91 94 98 101 100 100 99 98 98 97 98 97 97 97 99 99 99 99 99
16 13 3 8 21 33 44 54 66 80 94 100 106 106 107 106 107 104 100 95 93 92 90 87 87 88 90 94 95 98 97 97 96 95 95 95 97 98 99 100 98 97 96 98
12 13 4 7 20 33 44 51 63 79 92 99 104 104 104 105 103 102 99 95 92 88 89 89 87 87 87 87 89 89 91 92 91 92 93 94 95 95 96 95 97 97 96 98
12 13 8 6 17 30 41 51 63 78 91 99 100 102 102 102 101 100 99 96 93 89 87 87 88 86 84 84 83 82 83 84 86 88 90 93 95 96 99 98 98 96 96 96
8 8 8 4 16 29 38 48 62 75 90 97 99 100 100 99 98 97 96 96 94 93 91 88 88 85 84 82 81 82 83 82 78 76 77 77 78 80 82 81 83 80 67 61
4 7 5 5 12 25 36 45 56 69 84 94 96 98 98 97 96 95 93 93 91 90 90 90 85 84 81 83 84 84 83 80 81 79 76 75 72 69 65 60 55 58 51 56
1 5 3 6 9 21 34 43 54 65 79 90 95 95 96 95 92 91 90 91 91 92 90 89 88 83 81 81 81 82 81 81 80 78 77 76 74 70 63 56 53 64 65 65
4 4 4 8 8 16 30 40 51 61 71 82 89 92 94 95 94 90 86 84 82 82 83 83 82 84 84 84 83 80 79 80 80 78 78 76 73 66 62 56 54 62 64 63
4 5 7 7 7 12 23 34 42 55 61 72 84 90 91 91 91 91 90 88 86 83 82 83 85 85 82 77 72 66 66 71 76 76 79 79 77 73 64 62 65 63 70 60
4 6 6 7 5 9 16 28 39 47 55 63 71 83 87 87 88 87 89 89 88 86 84 84 84 81 76 74 63 64 63 69 73 73 75 76 73 71 68 70 72 66 73 79
5 5 5 5 3 3 7 16 27 40 46 55 60 67 75 79 80 81 84 85 86 83 81 81 81 82 80 75 74 71 71 74 74 72 72 77 77 76 73 69 66 69 76 78
6 7 7 5 6 6 6 9 18 30 40 46 53 57 62 68 72 77 78 81 82 83 81 78 75 75 76 75 72 73 72 70 71 72 76 78 70 67 62 65 67 71 79 81
8 7 11 11 12 10 8 8 13 18 28 36 42 47 52 59 64 68 68 66 71 74 73 70 69 70 68 69 66 65 66 61 61 62 65 60 55 59 63 68 65 68 75 73
8 7 7 8 12 11 12 9 11 15 17 25 32 35 39 42 45 47 50 53 54 56 54 51 44 47 44 43 45 49 51 50 49 47 46 42 50 58 59 67 69 74 80 80
10 9 9 8 11 12 12 12 11 16 20 21 23 23 24 30 32 35 37 36 35 36 43 48 52 48 45 44 46 40 35 45 44 35 39 42 46 55 62 63 73 82 86 87
15 13 10 10 10 11 12 14 15 22 24 25 28 30 28 28 34 36 35 38 42 44 43 50 53 47 45 46 34 38 33 30 31 33 33 38 40 48 57 62 66 76 83 86
Wind_Direction
277 264 255 247 238 227 220 215 210 208 208 208 209 212 214 216 216 216 214 212 211 216 218 218 221 222 225 228 231 229 233 234 233 239 242 245 248 254 258 260 262 261 257 257
290 272 253 242 235 228 219 214 211 209 207 204 209 209 213 215 216 215 214 213 212 215 219 220 221 221 224 227 230 233 234 236 237 238 246 250 252 253 256 258 259 258 255 257
305 286 260 239 227 223 216 210 210 208 206 203 206 208 212 213 216 215 214 213 213 214 219 222 223 224 223 225 228 232 235 238 240 244 244 249 252 255 257 259 260 260 256 258
326 301 262 238 220 210 208 204 205 207 206 203 202 207 210 215 216 217 215 213 214 215 219 223 226 225 226 227 228 230 234 237 240 243 246 245 247 252 256 260 260 261 258 256
336 319 270 223 210 203 200 199 204 203 202 201 200 206 207 213 215 217 218 213 215 216 218 222 225 227 228 230 232 234 234 236 238 241 244 246 247 248 251 256 259 260 257 256
350 338 297 213 197 196 194 193 197 200 201 200 200 205 208 213 214 216 218 216 215 218 219 223 225 227 229 231 232 234 235 237 238 241 243 243 248 249 250 254 259 260 252 257
359 348 306 198 193 199 193 194 194 197 199 197 200 205 208 208 212 215 217 217 216 217 221 224 225 227 228 231 232 236 237 238 241 243 245 247 248 250 250 253 256 258 256 259
7 349 324 199 191 197 190 189 193 194 196 197 199 203 206 210 212 214 216 217 217 217 220 225 227 227 228 230 233 236 238 242 242 245 247 250 251 253 254 257 255 256 260 263
9 357 320 210 193 195 188 188 191 194 193 194 199 204 205 209 212 214 216 218 219 219 221 224 228 230 230 231 233 236 239 243 245 247 250 251 252 254 256 258 260 260 259 261
12 1 324 210 198 191 187 194 189 191 192 195 198 201 205 208 211 213 215 218 221 222 225 227 229 231 232 234 235 237 239 242 246 249 251 253 255 258 259 261 262 263 266 269
4 10 328 208 194 190 188 190 191 193 192 195 198 203 205 209 211 213 214 217 220 222 225 228 232 233 235 236 238 240 241 243 246 248 252 254 256 257 259 261 263 266 268 270
1 6 337 215 190 187 194 189 190 191 194 196 200 201 205 208 211 214 215 217 220 223 226 230 233 236 238 240 242 243 245 246 248 251 253 255 257 259 261 263 266 268 270 271
0 12 17 205 193 189 191 194 192 194 194 198 198 202 206 209 212 214 217 218 220 223 227 230 232 236 239 243 246 248 250 251 253 255 256 257 259 261 264 266 267 269 272 274
1 15 12 190 192 190 192 194 195 196 195 198 202 203 205 210 212 215 218 220 221 224 228 231 235 238 240 243 246 249 252 253 255 258 260 262 263 264 265 267 267 269 270 272
19 22 28 180 192 187 193 196 194 197 197 199 201 204 207 210 213 215 219 222 224 225 227 231 235 240 243 246 248 249 251 254 258 262 263 264 267 267 268 270 272 273 279 279
19 25 39 111 195 189 187 195 197 197 199 201 203 205 207 210 214 217 219 222 226 229 231 234 235 237 241 244 247 250 254 257 258 261 264 266 268 270 272 271 265 253 258 260
204 78 58 100 172 193 187 192 195 198 200 203 204 207 208 210 213 217 220 223 225 228 231 233 237 239 241 243 248 252 255 257 261 264 266 269 271 272 271 268 249 249 253 257
246 135 111 99 147 191 195 193 197 199 202 204 206 208 211 213 214 216 219 223 226 228 230 233 236 239 242 247 251 254 255 259 263 265 267 268 270 272 271 261 250 253 253 256
239 157 120 115 134 187 197 199 198 202 202 206 208 211 212 214 216 218 221 224 227 230 233 236 239 243 247 251 254 254 257 258 261 262 266 269 272 272 268 265 266 259 256 261
185 165 149 140 138 166 204 208 206 203 206 208 210 213 216 217 218 221 224 226 230 233 235 238 241 245 248 250 249 248 251 258 264 267 269 271 272 273 273 271 271 261 257 255
175 160 161 152 176 202 204 201 206 210 207 212 213 215 217 220 221 225 227 230 231 234 237 240 242 244 248 252 255 258 262 265 269 271 271 274 275 275 272 267 258 252 250 253
185 169 191 201 205 234 235 205 192 204 210 214 213 216 218 221 224 227 229 231 234 236 239 243 246 249 252 255 259 261 264 266 267 268 270 273 269 264 253 245 245 245 248 254
206 199 200 214 230 228 229 220 211 205 205 211 215 218 221 222 224 227 231 234 237 239 243 246 250 254 259 259 261 262 265 261 259 258 259 263 262 255 245 241 243 247 253 256
203 178 173 206 221 209 216 205 205 207 190 203 214 212 219 222 224 226 227 229 233 237 240 239 222 224 231 233 233 236 240 250 257 258 259 263 260 258 249 245 243 244 251 254
205 200 213 214 226 210 210 196 198 178 169 169 169 184 190 209 208 209 210 214 218 216 206 206 205 208 211 219 228 236 254 252 253 264 262 258 261 260 258 257 251 249 252 255
207 218 213 202 207 204 194 193 191 176 157 158 168 178 168 177 175 178 182 186 185 191 201 204 208 210 218 223 236 247 263 267 269 264 263 259 262 261 261 263 264 260 259 261
Height
10451 10448 10448 10450 10459 10466 10478 10497 10518 10536 10557 10587 10621 10635 10648 10668 10687 10708 10735 10755 10771 10783 10794 10806 10814 10828 10840 10847 10857 10866 10867 10876 10880 10879 10879 10885 10889 10892 10896 10900 10900 10902 10902 10903
10433 10429 10428 10430 10437 10448 10465 10483 10504 10520 10541 10572 10592 10612 10632 10648 10668 10691 10719 10740 10758 10769 10783 10793 10802 10816 10826 10832 10842 10847 10855 10859 10865 10866 10874 10875 10876 10877 10885 10889 10889 10891 10892 10894
10418 10414 10413 10415 10423 10435 10451 10469 10487 10505 10527 10553 10575 10598 10615 10634 10653 10677 10707 10729 10744 10760 10769 10777 10788 10801 10810 10817 10827 10833 10842 10847 10854 10858 10860 10863 10865 10868 10871 10874 10880 10881 10884 10884
10408 10404 10403 10405 10410 10419 10435 10454 10474 10490 10508 10536 10567 10598 10619 10626 10651 10670 10698 10723 10737 10749 10759 10766 10775 10787 10795 10802 10813 10824 10832 10837 10841 10844 10850 10854 10854 10855 10858 10863 10868 10871 10873 10874
10403 10398 10397 10398 10404 10414 10428 10444 10459 10482 10503 10524 10558 10570 10601 10613 10637 10666 10693 10716 10727 10735 10745 10751 10761 10769 10782 10796 10808 10815 10822 10824 10828 10834 10837 10839 10840 10845 10847 10853 10855 10858 10861 10861
10400 10397 10396 10398 10404 10413 10421 10439 10454 10473 10495 10523 10549 10582 10588 10613 10646 10666 10681 10701 10714 10723 10731 10735 10744 10756 10775 10785 10798 10797 10803 10808 10814 10819 10820 10827 10831 10836 10838 10841 10844 10848 10848 10847
10401 10397 10397 10399 10405 10411 10424 10437 10449 10469 10493 10523 10547 10564 10581 10612 10624 10646 10668 10685 10699 10708 10716 10721 10732 10745 10759 10769 10780 10779 10788 10792 10801 10805 10811 10816 10820 10824 10828 10829 10832 10836 10834 10834
10402 10400 10399 10401 10406 10413 10426 10442 10455 10472 10492 10512 10538 10557 10581 10602 10620 10636 10653 10669 10683 10696 10705 10711 10717 10730 10746 10758 10764 10768 10773 10780 10787 10793 10797 10804 10810 10811 10814 10814 10817 10821 10819 10820
10405 10404 10402 10405 10409 10416 10428 10436 10450 10467 10480 10512 10536 10552 10584 10594 10611 10632 10649 10661 10673 10685 10694 10699 10709 10723 10734 10745 10750 10757 10762 10769 10774 10781 10787 10791 10793 10795 10800 10800 10803 10806 10806 10806
10408 10407 10407 10407 10413 10419 10429 10438 10453 10468 10490 10510 10533 10556 10565 10582 10599 10620 10637 10655 10668 10678 10688 10695 10703 10712 10723 10732 10740 10743 10751 10757 10767 10771 10772 10776 10778 10784 10786 10787 10789 10789 10793 10793
10411 10409 10409 10410 10414 10423 10430 10441 10458 10475 10489 10504 10527 10538 10565 10578 10594 10612 10630 10643 10655 10667 10678 10685 10694 10703 10712 10718 10725 10735 10742 10751 10756 10758 10763 10763 10768 10769 10772 10770 10774 10778 10781 10782
10412 10412 10412 10413 10417 10425 10434 10442 10455 10469 10487 10508 10520 10541 10555 10572 10587 10603 10621 10636 10648 10661 10671 10677 10686 10693 10699 10706 10717 10724 10733 10738 10743 10746 10749 10750 10753 10756 10756 10759 10763 10765 10767 10764
10415 10414 10414 10415 10420 10425 10435 10447 10459 10469 10487 10502 10516 10536 10550 10565 10580 10596 10610 10627 10639 10652 10661 10668 10676 10680 10693 10703 10706 10714 10719 10724 10726 10728 10732 10737 10742 10744 10744 10747 10748 10751 10750 10746
10417 10417 10417 10418 10421 10427 10435 10445 10458 10468 10483 10496 10514 10531 10544 10558 10574 10588 10601 10616 10631 10641 10649 10656 10664 10675 10686 10690 10697 10704 10707 10709 10710 10717 10725 10730 10728 10727 10729 10732 10735 10738 10734 10729
10420 10418 10418 10419 10421 10427 10436 10444 10452 10466 10482 10494 10509 10526 10540 10552 10565 10579 10592 10605 10618 10630 10639 10648 10655 10669 10674 10681 10686 10688 10690 10696 10706 10712 10710 10712 10715 10714 10717 10718 10718 10719 10714 10713
10421 10419 10420 10420 10424 10428 10436 10445 10456 10466 10480 10493 10506 10520 10533 10547 10559 10571 10585 10597 10610 10620 10629 10640 10652 10657 10664 10666 10668 10673 10683 10691 10690 10693 10698 10698 10698 10700 10701 10706 10700 10700 10701 10702
10424 10423 10423 10423 10426 10431 10435 10444 10452 10461 10470 10483 10497 10512 10527 10539 10551 10563 10575 10587 10600 10611 10622 10628 10637 10644 10645 10650 10658 10663 10670 10672 10675 10679 10681 10684 10683 10686 10689 10688 10688 10682 10685 10688
10426 10425 10425 10427 10429 10432 10436 10441 10449 10458 10468 10480 10493 10506 10518 10529 10543 10554 10565 10576 10586 10598 10608 10617 10626 10628 10635 10643 10647 10653 10655 10658 10661 10664 10666 10666 10666 10672 10674 10676 10674 10672 10673 10672
10428 10427 10427 10429 10432 10434 10438 10443 10450 10458 10468 10477 10488 10498 10510 10524 10537 10547 10557 10567 10575 10585 10594 10603 10609 10615 10626 10632 10637 10639 10643 10643 10644 10646 10648 10652 10654 10657 10661 10661 10662 10663 10662 10659
10429 10430 10430 10432 10434 10436 10438 10443 10448 10456 10464 10472 10483 10494 10507 10518 10530 10539 10549 10560 10568 10576 10584 10592 10600 10609 10614 10618 10622 10626 10628 10629 10630 10632 10633 10636 10640 10643 10646 10645 10646 10646 10646 10644
10430 10431 10433 10434 10436 10437 10439 10441 10447 10454 10463 10469 10478 10488 10499 10510 10522 10532 10540 10549 10560 10568 10574 10582 10589 10593 10601 10608 10610 10614 10616 10618 10620 10621 10621 10619 10623 10626 10628 10628 10628 10630 10630 10628
10431 10432 10433 10435 10437 10438 10440 10442 10445 10450 10457 10465 10474 10483 10492 10504 10510 10520 10529 10540 10549 10558 10565 10572 10578 10583 10590 10595 10599 10602 10603 10605 10604 10604 10603 10606 10607 10608 10611 10611 10615 10616 10617 10615
10432 10433 10434 10435 10436 10438 10439 10442 10445 10448 10455 10462 10472 10481 10488 10495 10504 10513 10522 10532 10540 10547 10556 10563 10569 10573 10575 10580 10585 10587 10590 10590 10590 10590 10590 10591 10595 10595 10597 10599 10602 10601 10601 10601
10433 10434 10434 10435 10435 10438 10439 10443 10446 10448 10453 10460 10468 10476 10482 10490 10498 10507 10516 10522 10528 10537 10546 10553 10559 10563 10568 10572 10575 10577 10579 10580 10581 10582 10583 10584 10584 10583 10586 10588 10589 10586 10585 10585
10433 10433 10434 10435 10434 10438 10441 10445 10448 10450 10454 10461 10468 10473 10480 10485 10494 10501 10508 10515 10522 10530 10537 10544 10550 10556 10561 10565 10568 10572 10574 10575 10575 10575 10573 10576 10576 10573 10574 10576 10576 10574 10573 10573
10432 10431 10433 10434 10436 10438 10442 10446 10450 10454 10457 10462 10469 10473 10480 10487 10493 10499 10507 10514 10523 10530 10537 10543 10547 10551 10556 10558 10562 10566 10568 10566 10566 10567 10566 10566 10565 10565 10565 10564 10563 10562 10560 10559